Location: Recife
(8.0585°S, 34.8848°W)
Time: 12:16:59
(UTC-03:00)

Vanguard 1 - Pass Details

Date: 22 April 2026
Orbit: 654 x 3817 km, 34.3° (Epoch: 11 May)

Event Time Altitude Azimuth Distance (km) Brightness Sun altitude
Rises 21:05:32 0° 286° (WNW) 6,623 14.8 -57.1°
Reaches altitude 10° 21:12:38 10° 305° (NW) 6,162 14.4 -58.9°
Maximum altitude 21:23:51 17° 339° (NNW) 6,148 14.1 -61.6°
Drops below altitude 10° 21:36:30 10° 13° (NNE) 6,899 14.3 -64.7°
Sets 21:45:47 0° 31° (NNE) 7,729 14.6 -66.9°
